Flag for New Zealand Weather past 2 weeks in Wellington, New Zealand

Now
52 °F

Passing clouds.


Feels Like: 48 °F
Forecast: 46 / 55 °F
Wind: 12 mph from Southeast

Location: Wellington Airport

Current Time: Aug 29, 2014 at 6:10:54 PM

Latest Report: Aug 29, 2014 at 5:30 PM


Visibility: N/A

Pressure: 30.54 "Hg

Humidity: 82%

Dew point: 46 °F

Location of WellingtonLocation

Historic Weather in Wellington — Graph

°F

Wellington temperature yesterday

Maximum temperature yesterday: 54 °F (at 11:00 AM)
Minimum temperature yesterday: 37 °F (at 3:00 AM)
Average temperature yesterday: 47 °F

Past Weeks' High & Low Weather Summary

 TemperatureHumidityPressure
High57 °F (Aug 18, 12:30 PM)100% (Aug 20, 4:00 PM)30.60 "Hg (Aug 20, 4:00 PM)
Low37 °F (Aug 27, 12:30 AM)54% (Aug 14, 11:30 PM)29.45 "Hg (Aug 14, 4:00 PM)
Average48 °F78%30.24 "Hg
* Reported Aug 14 4:00 PM — Aug 29 4:30 PM, Wellington, Weather by CustomWeather, © 2014

Note: Actual official high and low records may vary slightly from our data, if they occured in-between our weather recording intervals... More about our weather records

Advertising

Wellington weather history for previous 24 hours

 ConditionsComfort  
Time TempWeatherWind HumidityBarometerVisibility
4:30 PM
Aug 29
54 °FOvercast.15 mph72%30.51 "HgN/A
4:00 PM54 °FPartly sunny.15 mph72%30.51 "HgN/A
3:30 PM54 °FPartly sunny.16 mph77%30.51 "HgN/A
3:00 PM54 °FPartly sunny.20 mph77%30.51 "HgN/A
2:30 PM54 °FScattered clouds.21 mph77%30.51 "HgN/A
2:00 PM54 °FPassing clouds.20 mph82%30.54 "HgN/A
1:30 PM54 °FScattered clouds.17 mph82%30.54 "HgN/A
1:00 PM54 °FPassing clouds.16 mph82%30.54 "HgN/A
12:30 PM54 °FPartly sunny.15 mph82%30.57 "HgN/A
12:00 PM54 °FCool.15 mph77%30.60 "HgN/A
11:30 AM52 °FPassing clouds.7 mph72%30.60 "HgN/A
11:00 AM52 °FPassing clouds.6 mph72%30.60 "HgN/A
10:30 AM52 °FPartly sunny.2 mph72%30.60 "HgN/A
10:00 AM52 °FPartly sunny.3 mph72%30.60 "HgN/A
9:30 AM48 °FCool.3 mph82%30.60 "HgN/A
8:30 AM46 °FCool.3 mph87%30.60 "HgN/A
8:00 AM45 °FQuite cool.3 mph87%30.60 "HgN/A
7:30 AM41 °FQuite cool.2 mph87%30.60 "HgN/A
7:00 AM39 °FChilly.1 mph93%30.57 "HgN/A
6:30 AM39 °FChilly.1 mph93%30.57 "HgN/A
6:00 AM37 °FChilly.2 mph93%30.57 "HgN/A
5:30 AM39 °FChilly.2 mph93%30.57 "HgN/A
5:00 AM39 °FPassing clouds.5 mph87%30.57 "HgN/A
4:30 AM39 °FPassing clouds.2 mph93%30.57 "HgN/A
4:00 AM39 °FChilly.3 mph93%30.57 "HgN/A
3:30 AM39 °FChilly.3 mph93%30.57 "HgN/A
3:00 AM39 °FChilly.3 mph93%30.57 "HgN/A
2:30 AM43 °FQuite cool.2 mph87%30.57 "HgN/A
2:00 AM41 °FQuite cool.2 mph87%30.57 "HgN/A
1:30 AM43 °FQuite cool.3 mph81%30.57 "HgN/A
1:00 AM43 °FQuite cool.1 mph81%30.57 "HgN/A
12:30 AM45 °FQuite cool.2 mph76%30.57 "HgN/A
12:00 AM46 °FCool.2 mph71%30.57 "HgN/A
11:30 PM
Aug 28
46 °FCool.2 mph71%30.57 "HgN/A
11:00 PM48 °FCool.5 mph66%30.57 "HgN/A
10:30 PM50 °FCool.7 mph67%30.57 "HgN/A
10:00 PM50 °FCool.8 mph67%30.57 "HgN/A
9:30 PM50 °FCool.5 mph71%30.57 "HgN/A
9:00 PM50 °FPassing clouds.5 mph71%30.57 "HgN/A
8:30 PM50 °FOvercast.1 mph76%30.57 "HgN/A
8:00 PM50 °FPassing clouds.2 mph76%30.54 "HgN/A
7:30 PM50 °FPassing clouds.3 mph71%30.54 "HgN/A
7:00 PM52 °FPassing clouds.8 mph67%30.54 "HgN/A
6:30 PM52 °FPassing clouds.7 mph62%30.54 "HgN/A
6:00 PM52 °FPassing clouds.10 mph67%30.54 "HgN/A
Weather by CustomWeather, © 2014

See weather overviewHow to use our weather pages